Tracking 19224 objects as of 22-Jul-2018
HD Live streaming from Space Station
objects crossing your sky now

FLOCK 3P 67

Track FLOCK 3P 67 now!
10-day predictions
FLOCK 3P 67 is classified as:


NORAD ID: 42002
Int'l Code: 2017-008BG
Perigee: 493.8 km
Apogee: 502.6 km
Inclination: 97.4 °
Period: 94.4 minutes
Semi major axis: 6869 km
RCS: Unknown
Launch date: February 15, 2017
Source: United States (US)
Launch site: SRIHARIKOTA (SRI)
aabbcc
Your satellite tracking list
Your tracking list is empty




NASA's NSSDC Master Catalog

Two Line Element Set (TLE):
1 42002U 17008BG  18202.60619615 +.00002154 +00000-0 +89497-4 0  9994
2 42002 097.4481 267.4378 0006427 242.5616 117.4969 15.24897509079367
Source of the keplerian elements: AFSPC